Meteo pe oră la Dzielawy

Astăzi, 5 Martie, Vineri

Timp Temperatura Precipitaţii Vânt Presiune Umiditate
00:00 +2°C° 1.3 mm 3 m/s 741 mmHg 91%
01:00 +1°C° 0 mm 3 m/s 741 mmHg 92%
02:00 0°C° 0.6 mm 3 m/s 741 mmHg 92%
03:00 0°C° 0.6 mm 3 m/s 741 mmHg 92%
04:00 0°C° 0.6 mm 3 m/s 741 mmHg 93%
05:00 0°C° 0.4 mm 3 m/s 741 mmHg 94%
06:00 0°C° 0.4 mm 3 m/s 741 mmHg 95%
07:00 0°C° 0.4 mm 3 m/s 742 mmHg 95%
08:00 -1°C° 0.3 mm 4 m/s 742 mmHg 94%
09:00 -1°C° 0.3 mm 5 m/s 743 mmHg 92%
10:00 -2°C° 0.3 mm 5 m/s 744 mmHg 90%
11:00 -1°C° 0.1 mm 5 m/s 744 mmHg 81%
12:00 0°C° 0.1 mm 5 m/s 745 mmHg 72%
13:00 +1°C° 0.1 mm 5 m/s 745 mmHg 63%
14:00 +1°C° 0 mm 5 m/s 746 mmHg 60%
15:00 0°C° 0 mm 5 m/s 746 mmHg 57%
16:00 0°C° 0 mm 5 m/s 747 mmHg 54%
17:00 0°C° 0 mm 4 m/s 747 mmHg 59%
18:00 0°C° 0 mm 3 m/s 748 mmHg 63%
19:00 -1°C° 0 mm 3 m/s 749 mmHg 68%
20:00 -1°C° 0 mm 3 m/s 749 mmHg 70%
21:00 -2°C° 0 mm 2 m/s 750 mmHg 71%
22:00 -2°C° 0 mm 2 m/s 751 mmHg 73%
23:00 -2°C° 0 mm 2 m/s 751 mmHg 73%

Mâine, 6 Martie, Sâmbătă

Timp Temperatura Precipitaţii Vânt Presiune Umiditate
00:00 -2°C° 0 mm 3 m/s 751 mmHg 74%
01:00 -2°C° 0 mm 3 m/s 752 mmHg 75%
02:00 -2°C° 0 mm 3 m/s 752 mmHg 75%
03:00 -2°C° 0 mm 3 m/s 752 mmHg 75%
04:00 -4°C° 0 mm 3 m/s 752 mmHg 75%
05:00 -4°C° 0 mm 3 m/s 753 mmHg 74%
06:00 -3°C° 0 mm 2 m/s 753 mmHg 74%
07:00 -3°C° 0 mm 2 m/s 753 mmHg 74%
08:00 -1°C° 0 mm 2 m/s 754 mmHg 68%
09:00 0°C° 0 mm 3 m/s 754 mmHg 62%
10:00 +1°C° 0 mm 3 m/s 754 mmHg 56%
11:00 +1°C° 0 mm 3 m/s 754 mmHg 53%
12:00 +2°C° 0 mm 3 m/s 754 mmHg 49%
13:00 +3°C° 0 mm 3 m/s 754 mmHg 46%
14:00 +3°C° 0 mm 3 m/s 753 mmHg 47%
15:00 +3°C° 0 mm 3 m/s 753 mmHg 48%
16:00 +3°C° 0 mm 3 m/s 753 mmHg 48%
17:00 +3°C° 0 mm 2 m/s 752 mmHg 54%
18:00 +1°C° 0 mm 2 m/s 752 mmHg 59%
19:00 -1°C° 0 mm 2 m/s 752 mmHg 64%
20:00 -1°C° 0 mm 2 m/s 752 mmHg 65%
21:00 -1°C° 0 mm 2 m/s 752 mmHg 66%
22:00 -1°C° 0 mm 2 m/s 752 mmHg 67%
23:00 -1°C° 0 mm 2 m/s 752 mmHg 66%

Poimâine, 7 Martie, Duminică

Timp Temperatura Precipitaţii Vânt Presiune Umiditate
00:00 -1°C° 0 mm 2 m/s 752 mmHg 65%
01:00 -1°C° 0 mm 2 m/s 751 mmHg 64%
02:00 -2°C° 0 mm 3 m/s 751 mmHg 64%
03:00 -2°C° 0 mm 3 m/s 750 mmHg 63%
04:00 -2°C° 0 mm 3 m/s 750 mmHg 62%
05:00 -2°C° 0 mm 3 m/s 750 mmHg 62%
06:00 -2°C° 0 mm 3 m/s 750 mmHg 62%
07:00 -1°C° 0 mm 3 m/s 750 mmHg 61%
08:00 0°C° 0 mm 3 m/s 749 mmHg 57%
09:00 +1°C° 0 mm 3 m/s 749 mmHg 52%
10:00 +3°C° 0 mm 3 m/s 749 mmHg 47%
11:00 +3°C° 0 mm 3 m/s 748 mmHg 46%
12:00 +4°C° 0 mm 3 m/s 748 mmHg 45%
13:00 +5°C° 0 mm 3 m/s 747 mmHg 44%
14:00 +5°C° 0 mm 3 m/s 747 mmHg 45%
15:00 +5°C° 0 mm 3 m/s 746 mmHg 47%
16:00 +5°C° 0 mm 3 m/s 745 mmHg 48%
17:00 +3°C° 0 mm 3 m/s 745 mmHg 54%
18:00 +3°C° 0 mm 2 m/s 745 mmHg 60%
19:00 +1°C° 0 mm 2 m/s 745 mmHg 66%
20:00 +1°C° 0 mm 2 m/s 745 mmHg 69%
21:00 +2°C° 0 mm 1 m/s 744 mmHg 72%
22:00 +1°C° 0 mm 1 m/s 744 mmHg 75%
23:00 +1°C° 0 mm 1 m/s 744 mmHg 76%

8 Martie, Luni

Timp Temperatura Precipitaţii Vânt Presiune Umiditate
00:00 +1°C° 0 mm 1 m/s 744 mmHg 78%
01:00 +1°C° 0 mm 1 m/s 744 mmHg 79%
02:00 -2°C° 0 mm 2 m/s 744 mmHg 80%
03:00 -2°C° 0 mm 2 m/s 743 mmHg 80%
04:00 -2°C° 0 mm 2 m/s 743 mmHg 81%
05:00 -2°C° 0 mm 2 m/s 743 mmHg 81%
06:00 -1°C° 0 mm 2 m/s 743 mmHg 81%
07:00 -1°C° 0 mm 3 m/s 743 mmHg 81%
08:00 -1°C° 0.1 mm 3 m/s 743 mmHg 82%
09:00 0°C° 0.1 mm 3 m/s 744 mmHg 82%
10:00 0°C° 0.1 mm 4 m/s 744 mmHg 82%
11:00 0°C° 0.1 mm 4 m/s 744 mmHg 84%
12:00 0°C° 0.1 mm 4 m/s 744 mmHg 85%
13:00 0°C° 0.1 mm 4 m/s 744 mmHg 86%
14:00 0°C° 0.1 mm 4 m/s 744 mmHg 79%
15:00 0°C° 0.1 mm 4 m/s 744 mmHg 73%
16:00 +1°C° 0.1 mm 4 m/s 744 mmHg 66%
17:00 0°C° 0 mm 3 m/s 745 mmHg 68%
18:00 -1°C° 0 mm 3 m/s 746 mmHg 70%
19:00 -2°C° 0 mm 2 m/s 746 mmHg 71%
20:00 -2°C° 0 mm 2 m/s 746 mmHg 73%
21:00 -2°C° 0 mm 2 m/s 747 mmHg 75%
22:00 -1°C° 0 mm 1 m/s 747 mmHg 76%
23:00 -1°C° 0 mm 1 m/s 747 mmHg 77%

9 Martie, Marţi

Timp Temperatura Precipitaţii Vânt Presiune Umiditate
00:00 -1°C° 0 mm 1 m/s 747 mmHg 78%
01:00 -1°C° 0 mm 1 m/s 747 mmHg 79%
02:00 -1°C° 0 mm 1 m/s 747 mmHg 79%
03:00 -1°C° 0 mm 1 m/s 747 mmHg 79%
04:00 -1°C° 0 mm 1 m/s 747 mmHg 80%
05:00 -1°C° 0 mm 1 m/s 747 mmHg 78%
06:00 -1°C° 0 mm 1 m/s 747 mmHg 77%
07:00 -1°C° 0 mm 1 m/s 747 mmHg 76%
08:00 0°C° 0 mm 1 m/s 747 mmHg 70%
09:00 +1°C° 0 mm 1 m/s 747 mmHg 65%
10:00 +1°C° 0 mm 1 m/s 748 mmHg 59%
11:00 +2°C° 0 mm 1 m/s 748 mmHg 55%
12:00 +2°C° 0 mm 1 m/s 748 mmHg 51%
13:00 +3°C° 0 mm 1 m/s 747 mmHg 46%
14:00 +3°C° 0 mm 1 m/s 747 mmHg 46%
15:00 +3°C° 0 mm 1 m/s 747 mmHg 46%
16:00 +3°C° 0 mm 1 m/s 747 mmHg 46%
17:00 +2°C° 0 mm 1 m/s 747 mmHg 50%
18:00 +1°C° 0 mm 1 m/s 747 mmHg 54%
19:00 0°C° 0 mm 1 m/s 747 mmHg 58%
20:00 0°C° 0 mm 1 m/s 747 mmHg 58%
21:00 0°C° 0 mm 1 m/s 747 mmHg 59%
22:00 -1°C° 0 mm 1 m/s 748 mmHg 60%
23:00 -1°C° 0 mm 1 m/s 747 mmHg 61%

10 Martie, Miercuri

Timp Temperatura Precipitaţii Vânt Presiune Umiditate
00:00 -1°C° 0 mm 1 m/s 747 mmHg 62%
01:00 -1°C° 0 mm 1 m/s 747 mmHg 63%
02:00 -1°C° 0 mm 1 m/s 747 mmHg 63%
03:00 -1°C° 0 mm 1 m/s 747 mmHg 63%
04:00 -1°C° 0 mm 1 m/s 747 mmHg 63%
05:00 -3°C° 0 mm 2 m/s 747 mmHg 62%
06:00 -2°C° 0 mm 2 m/s 747 mmHg 61%
07:00 -2°C° 0 mm 2 m/s 747 mmHg 60%
08:00 -1°C° 0 mm 2 m/s 747 mmHg 57%
09:00 +2°C° 0 mm 2 m/s 747 mmHg 53%
10:00 +3°C° 0 mm 3 m/s 747 mmHg 50%
11:00 +3°C° 0 mm 3 m/s 747 mmHg 51%
12:00 +4°C° 0 mm 3 m/s 746 mmHg 52%
13:00 +5°C° 0 mm 3 m/s 746 mmHg 53%
14:00 +5°C° 0 mm 3 m/s 746 mmHg 55%
15:00 +5°C° 0 mm 3 m/s 745 mmHg 58%
16:00 +5°C° 0 mm 3 m/s 745 mmHg 60%
17:00 +4°C° 0 mm 3 m/s 745 mmHg 67%
18:00 +3°C° 0 mm 3 m/s 745 mmHg 73%
19:00 +1°C° 0 mm 3 m/s 744 mmHg 79%
20:00 +1°C° 0 mm 3 m/s 744 mmHg 79%
21:00 0°C° 0 mm 4 m/s 744 mmHg 78%
22:00 0°C° 0 mm 4 m/s 744 mmHg 77%
23:00 +1°C° 0 mm 4 m/s 743 mmHg 75%
Arată mai mult

Formular de consimțământ

Meteoprog și furnizorii noștri de servicii pot stoca și accesa date personale, precum cookies, identificatori de dispozitiv sau alte tehnologii similare pe dispozitivul dumneavoastră și procesa astfel de date pentru a personaliza conținutul și reclamele, dar și pentru a oferi caracteristici de social media și pentru a analiza traficul.

  • Stocarea și/sau accesarea informațiilor pe dispozitivul dumneavoastră

    Cookies, identificatori de dispozitiv sau alte informații pot fi stocate sau accesate pe dispozitiv în scopurile indicate mai sus.

  • Reclame și conținut personalizat, evaluarea reclamelor și a conținutului, informații despre audiențe și dezvoltarea produselor

    Reclamele și conținutul pot fi personalizate pe baza unui profil. Pot fi adăugate date suplimentare pentru a personaliza mai bine reclamele și conținutul. Performanța reclamelor și conținutului poate fi măsurată. Pot fi obținute informații despre utilizatorii care au văzut reclamele și conținutul. Aceste date pot fi utilizate pentru a dezvolta sau îmbunătăți experiența utilizatorilor, sistemele și software-ul.

Dând clic pe ‘Sunt de acord’, permiteți utilizarea cookie-urilor menționate, a identificatorilor de dispozitiv, balizelor web sau altor tehnologii similare. Setările pot fi modificate din browser-ul dispozitivului dumneavoastră.

În anumite scopuri, interesele legitime pot prima asupra consimțământului. Puteți citi mai multe informații în acest sens în Politica privind Confidențialitatea Datelor și Cookie.